Regional Weather Roundup
Issued by NWS

Current Version | Previous Version | Text Only | Print | Product List | Glossary On
Versions: 1 2 3 4 5 6 7 8 9 10 11 12 13 14 15 16 17 18 19 20 21 22 23 24 25 26 27 28 29 30 31 32 33 34 35 36 37 38 39 40 41 42 43 44 45 46 47 48 49 50
000
ASUS43 KTOP 211459
RWRKS

WEATHER ROUNDUP FOR KANSAS
NATIONAL WEATHER SERVICE GOODLAND KS
1000 AM CDT SUN SEP 21 2014

NOTE:  "FAIR" INDICATES FEW OR NO CLOUDS BELOW 12,000 FEET WITH NO
SIGNIFICANT WEATHER AND/OR OBSTRUCTIONS TO VISIBILITY.

KSZ001>006-013>018-027>032-041>047-211600-
NORTHWEST KANSAS

CITY           SKY/WX    TMP DP  RH WIND       PRES   REMARKS
GOODLAND       CLOUDY    60  46  59 NW5       30.38R
HAYS           SUNNY     66  46  48 N10       30.29R
HILL CITY      PTSUNNY   66  43  43 N13       30.31R
RUSSELL        SUNNY     67  50  54 N9        30.27R
$$

KSZ061>065-074>080-084>089-211600-
SOUTHWEST KANSAS

CITY           SKY/WX    TMP DP  RH WIND       PRES   REMARKS
DODGE CITY     MOSUNNY   66  50  56 NE9       30.29R
ELKHART          N/A     66  48  52 NE15        N/A
GARDEN CITY    SUNNY     66  47  50 E13G23    30.31R
GREAT BEND     SUNNY     66  52  59 NE10      30.28R
LIBERAL        SUNNY     70  48  46 NE20      30.29R
$$

KSZ066>073-081>083-090>101-211600-
SOUTHEAST KANSAS

CITY           SKY/WX    TMP DP  RH WIND       PRES   REMARKS
CHANUTE        SUNNY     72  51  47 NE13G21   30.17R
HUTCHINSON     SUNNY     69  55  60 NE7       30.23R
NEWTON         SUNNY     70  54  56 NE8       30.25R
PARSONS        SUNNY     73  55  53 VRB5      30.18R
WICHITA INTL   MOSUNNY   73  49  42 NE13      30.21R
WICHITA JABRA  SUNNY     72  52  49 NE12      30.20R
WINFIELD       MOSUNNY   73  50  44 NE15G24   30.20R
$$

KSZ007>012-019>026-033>040-048>060-102>105-211600-
NORTHEAST KANSAS

CITY           SKY/WX    TMP DP  RH WIND       PRES   REMARKS
CONCORDIA      SUNNY     66  51  58 NW6       30.25R
EMPORIA        SUNNY     69  55  60 N6        30.20R
LAWRENCE       SUNNY     68  58  70 W6        30.18S
MANHATTAN      SUNNY     70  53  54 N6        30.22R
OLATHE IND     SUNNY     68  55  63 N9        30.18R
OLATHE EXE     SUNNY     70  51  51 NW8       30.17R
SALINA         SUNNY     69  56  62 N9        30.25R
TOPEKA BILLARD SUNNY     70  60  70 NW7       30.20R
TOPEKA FORBES  SUNNY     70  55  59 NW8       30.19R
$$



USA.gov is the U.S. government's official web portal to all federal, state and local government web resources and services.